Date String (YYYY-MM-DD hh:mm:ss) UTC,Instrument flags,absolute air pressure of the measurement (hPa),sample flow rate (lpm),inlet stack bypass flow (lpm),air temperature of the measurement (°C),ambient temperature measured by the external sensor (°C),aerosol sample conditioner tube jacket temperature (°C),OPC LED temperature (°C),internal box temperature (°C),relative humidity of the measurement (%),span deviation,mass concentration of particles derived from Lorenz-Mie calculation of OPC scattering (μg/m³),mass concentration of particles derived from Lorenz-Mie calculation of OPC scattering (μg/m³),mass concentration of particles derived from Lorenz-Mie calculation of OPC scattering (μg/m³)
DateTimeUTC,F1_M11,P_M11,Q1_M11,Q2_M11,T1_M11,T2_M11,T3_M11,T4_M11,T5_M11,U1_M11,ZSPAN_M11,X0_M11,X2_M11,X1_M11
2023-08-13 20:00:00,SystemResetWarning,0838.2,5.00,000.00,029.2,026.1,000.0,037.7,030.6,25.3,0000.0,0007.83,0003.48,0002.87
2023-08-13 20:01:00,SystemResetWarning,0838.1,5.00,000.00,029.2,026.5,000.0,037.7,030.7,25.0,0000.0,0008.21,0003.46,0002.87
2023-08-13 20:02:00,SystemResetWarning,0838.1,5.00,000.00,029.3,026.9,000.0,037.7,030.8,25.1,0000.0,0009.36,0003.45,0002.88
2023-08-13 20:03:00,SystemResetWarning,0838.2,5.01,000.00,029.3,027.2,000.0,037.7,030.9,25.4,0000.0,0009.50,0003.46,0002.90
2023-08-13 20:04:00,SystemResetWarning,0838.2,4.99,000.00,029.3,027.5,000.0,037.8,031.0,25.4,0000.0,0009.65,0003.49,0002.91
2023-08-13 20:05:00,SystemResetWarning,0838.2,4.99,000.00,029.3,027.7,000.0,037.8,031.1,25.4,0000.0,0010.36,0003.54,0002.91
2023-08-13 20:06:00,SystemResetWarning,0838.2,5.00,000.00,029.4,027.9,000.0,037.8,031.1,25.2,0000.0,0010.33,0003.59,0002.91
2023-08-13 20:07:00,SystemResetWarning,0838.2,5.00,000.00,029.4,028.1,000.0,037.8,031.2,24.9,0000.0,0010.59,0003.63,0002.91
2023-08-13 20:08:00,SystemResetWarning,0838.2,5.00,000.00,029.5,028.1,000.0,037.8,031.2,25.1,0000.0,0010.45,0003.61,0002.90
2023-08-13 20:09:00,SystemResetWarning,0838.2,4.99,000.00,029.4,026.6,000.0,037.7,030.9,25.6,0000.0,0010.66,0003.58,0002.88
2023-08-13 20:10:00,SystemResetWarning,0838.2,5.01,000.00,029.4,025.6,000.0,037.6,030.7,25.3,0000.0,0010.83,0003.58,0002.88
2023-08-13 20:11:00,SystemResetWarning,0838.2,5.01,000.00,029.3,025.7,000.0,037.6,030.5,25.3,0000.0,0011.42,0003.59,0002.90
2023-08-13 20:12:00,SystemResetWarning,0838.1,5.01,000.00,029.2,026.0,000.0,037.7,030.5,25.4,0000.0,0011.31,0003.61,0002.92
2023-08-13 20:13:00,SystemResetWarning,0838.2,5.00,000.00,029.2,026.4,000.0,037.7,030.7,25.6,0000.0,0010.80,0003.64,0002.93
2023-08-13 20:14:00,SystemResetWarning,0838.1,5.00,000.00,029.2,026.8,000.0,037.7,030.8,25.7,0000.0,0010.74,0003.67,0002.94
2023-08-13 20:15:00,SystemResetWarning,0838.2,5.00,000.00,029.2,027.1,000.0,037.7,030.9,25.4,0000.0,0010.94,0003.67,0002.96
2023-08-13 20:16:00,SystemResetWarning,0838.1,5.00,000.00,029.3,027.4,000.0,037.7,030.9,25.3,0000.0,0010.94,0003.67,0002.98
2023-08-13 20:17:00,SystemResetWarning,0838.1,5.00,000.00,029.3,027.7,000.0,037.8,031.0,25.4,0000.0,0010.38,0003.65,0002.99
2023-08-13 20:18:00,SystemResetWarning,0838.1,5.00,000.00,029.3,027.9,000.0,037.8,031.1,25.3,0000.0,0010.41,0003.63,0003.00
2023-08-13 20:19:00,SystemResetWarning,0838.1,5.00,000.00,029.4,028.1,000.0,037.8,031.1,25.4,0000.0,0010.45,0003.64,0003.02
2023-08-13 20:20:00,SystemResetWarning,0838.2,4.99,000.00,029.4,027.8,000.0,037.8,031.1,25.7,0000.0,0010.36,0003.66,0003.03
2023-08-13 20:21:00,SystemResetWarning,0838.2,4.99,000.00,029.4,026.1,000.0,037.6,030.8,25.0,0000.0,0009.94,0003.67,0003.02
2023-08-13 20:22:00,SystemResetWarning,0838.2,5.02,000.00,029.3,025.5,000.0,037.6,030.6,25.2,0000.0,0009.69,0003.67,0003.01
2023-08-13 20:23:00,SystemResetWarning,0838.1,5.00,000.00,029.2,025.7,000.0,037.6,030.5,25.4,0000.0,0009.76,0003.64,0002.99
2023-08-13 20:24:00,SystemResetWarning,0838.2,4.99,000.00,029.2,026.0,000.0,037.6,030.5,25.4,0000.0,0009.33,0003.60,0002.97
2023-08-13 20:25:00,SystemResetWarning,0838.1,5.00,000.00,029.2,026.4,000.0,037.7,030.7,25.2,0000.0,0008.96,0003.62,0002.99
2023-08-13 20:26:00,SystemResetWarning,0838.2,5.01,000.00,029.2,026.8,000.0,037.7,030.8,25.1,0000.0,0008.80,0003.59,0002.99
2023-08-13 20:27:00,SystemResetWarning,0838.1,5.00,000.00,029.2,027.1,000.0,037.7,030.8,25.4,0000.0,0008.91,0003.60,0002.98
2023-08-13 20:28:00,SystemResetWarning,0838.2,4.99,000.00,029.2,027.4,000.0,037.7,030.9,25.5,0000.0,0009.54,0003.60,0002.96
2023-08-13 20:29:00,SystemResetWarning,0838.2,4.99,000.00,029.3,027.7,000.0,037.7,031.0,25.4,0000.0,0010.13,0003.61,0002.96
2023-08-13 20:30:00,SystemResetWarning,0838.2,5.01,000.00,029.3,027.9,000.0,037.8,031.1,25.6,0000.0,0010.56,0003.61,0002.95
2023-08-13 20:31:00,SystemResetWarning,0838.2,5.01,000.00,029.3,028.0,000.0,037.8,031.1,25.1,0000.0,0010.93,0003.58,0002.94
2023-08-13 20:32:00,SystemResetWarning,0838.2,5.00,000.00,029.4,028.1,000.0,037.8,031.1,25.2,0000.0,0012.02,0003.61,0002.95
2023-08-13 20:33:00,SystemResetWarning,0838.1,4.98,000.00,029.4,026.6,000.0,037.7,030.8,25.2,0000.0,0012.26,0003.63,0002.96
2023-08-13 20:34:00,SystemResetWarning,0838.0,5.01,000.00,029.3,025.6,000.0,037.6,030.6,25.3,0000.0,0012.06,0003.69,0002.97
2023-08-13 20:35:00,SystemResetWarning,0837.9,5.01,000.00,029.2,025.7,000.0,037.5,030.6,25.2,0000.0,0012.10,0003.72,0002.98
2023-08-13 20:36:00,SystemResetWarning,0838.0,5.00,000.00,029.2,026.0,000.0,037.6,030.5,25.4,0000.0,0012.39,0003.73,0002.97
2023-08-13 20:37:00,SystemResetWarning,0838.0,5.00,000.00,029.2,026.4,000.0,037.6,030.6,25.6,0000.0,0012.58,0003.75,0002.96
2023-08-13 20:38:00,SystemResetWarning,0838.0,4.99,000.00,029.2,026.7,000.0,037.6,030.7,25.5,0000.0,0011.97,0003.75,0002.96
2023-08-13 20:39:00,SystemResetWarning,0838.1,5.01,000.00,029.2,027.1,000.0,037.7,030.8,25.3,0000.0,0011.44,0003.75,0002.97
2023-08-13 20:40:00,SystemResetWarning,0838.0,4.99,000.00,029.2,027.4,000.0,037.7,030.9,25.2,0000.0,0010.79,0003.78,0002.97
2023-08-13 20:41:00,SystemResetWarning,0838.0,4.99,000.00,029.3,027.6,000.0,037.7,031.0,25.1,0000.0,0010.14,0003.79,0002.97
2023-08-13 20:42:00,SystemResetWarning,0838.0,5.00,000.00,029.3,027.8,000.0,037.7,031.0,24.9,0000.0,0009.96,0003.81,0002.96
2023-08-13 20:43:00,SystemResetWarning,0838.0,5.01,000.00,029.3,028.0,000.0,037.8,031.1,25.0,0000.0,0009.16,0003.76,0002.96
2023-08-13 20:44:00,SystemResetWarning,0838.0,5.00,000.00,029.4,028.1,000.0,037.8,031.1,25.0,0000.0,0008.80,0003.74,0002.95
2023-08-13 20:45:00,SystemResetWarning,0838.1,4.99,000.00,029.4,027.1,000.0,037.7,031.0,25.2,0000.0,0008.65,0003.69,0002.93
2023-08-13 20:46:00,SystemResetWarning,0838.0,5.00,000.00,029.3,025.3,000.0,037.6,030.6,25.1,0000.0,0008.60,0003.67,0002.92
2023-08-13 20:47:00,SystemResetWarning,0837.9,5.00,000.00,029.2,024.6,000.0,037.5,030.4,25.3,0000.0,0008.11,0003.63,0002.92
2023-08-13 20:48:00,SystemResetWarning,0837.9,5.01,000.00,029.1,024.8,000.0,037.5,030.2,25.6,0000.0,0008.10,0003.63,0002.92
2023-08-13 20:49:00,SystemResetWarning,0838.0,5.00,000.00,029.0,025.3,000.0,037.5,030.3,25.7,0000.0,0008.45,0003.62,0002.91
2023-08-13 20:50:00,SystemResetWarning,0837.9,5.00,000.00,029.0,025.8,000.0,037.5,030.4,25.8,0000.0,0008.15,0003.58,0002.90
2023-08-13 20:51:00,SystemResetWarning,0837.9,5.00,000.00,029.0,026.2,000.0,037.5,030.5,25.5,0000.0,0008.59,0003.54,0002.89
2023-08-13 20:52:00,SystemResetWarning,0838.0,5.00,000.00,029.0,026.6,000.0,037.5,030.6,25.7,0000.0,0008.81,0003.52,0002.89
2023-08-13 20:53:00,SystemResetWarning,0838.0,4.98,000.00,029.0,026.9,000.0,037.6,030.7,25.5,0000.0,0009.38,0003.49,0002.91
2023-08-13 20:54:00,SystemResetWarning,0838.0,5.01,000.00,029.1,027.2,000.0,037.6,030.8,25.3,0000.0,0009.84,0003.49,0002.92
2023-08-13 20:55:00,SystemResetWarning,0838.0,5.01,000.00,029.1,027.5,000.0,037.6,030.8,25.0,0000.0,0009.67,0003.46,0002.91
2023-08-13 20:56:00,SystemResetWarning,0837.9,5.00,000.00,029.1,027.7,000.0,037.6,030.9,25.0,0000.0,0009.51,0003.46,0002.93
2023-08-13 20:57:00,SystemResetWarning,0838.0,4.99,000.00,029.2,027.9,000.0,037.6,031.0,25.1,0000.0,0009.44,0003.47,0002.94
2023-08-13 20:58:00,SystemResetWarning,0838.0,5.00,000.00,029.2,028.1,000.0,037.7,031.0,25.3,0000.0,0009.49,0003.48,0002.94
2023-08-13 20:59:00,SystemResetWarning,0838.0,5.00,000.00,029.3,028.2,000.0,037.7,031.1,25.1,0000.0,0009.47,0003.48,0002.93
